Regional Weather Roundup
Issued by NWS

Home | Current Version | Previous Version | Graphics & Text | Print | Product List | Glossary On
Versions: 1 2 3 4 5 6 7 8 9 10 11 12 13 14 15 16 17 18 19 20 21 22 23 24 25 26 27
000
ASUS45 KBOU 191107
RWRCO

WEATHER ROUNDUP FOR COLORADO
NATIONAL WEATHER SERVICE DENVER/BOULDER CO
500 AM MDT WED JUL 19 2017

NOTE: "FAIR" INDICATES FEW OR NO CLOUDS BELOW 12000 FEET WITH NO
SIGNIFICANT WEATHER AND/OR OBSTRUCTIONS TO VISIBILITY.

COZ001>005-013-030-031-191200-
...NORTHWEST COLORADO...

CITY           SKY/WX    TMP DP  RH WIND       PRES   REMARKS
CRAIG          FAIR      53  45  74 CALM      30.25R
HAYDEN         FAIR      61  43  51 E8        30.28R
MEEKER         FAIR      57  48  72 CALM      30.26S
RABBIT EARS PA FAIR      59  39  47 SW5       30.61R
STEAMBOAT SPGS FAIR      55  45  70 CALM      30.31R
WALDEN         FAIR      50  41  71 SE9       30.42R
$$

COZ006>008-011-191200-
...WEST CENTRAL VALLEYS...

CITY           SKY/WX    TMP DP  RH WIND       PRES   REMARKS
GRAND JUNCTION FAIR      78  51  38 SE21      30.14R
MONTROSE       FAIR      67  49  52 S7        30.26R
EAGLE          FAIR      59  47  64 SE3       30.35R
RIFLE          FAIR      68  49  50 SW3       30.22R
DELTA          FAIR      73  49  42 NE5       30.22R
NUCLA          FAIR      66  46  48 E8        30.31R
$$

COZ017>023-064>068-191200-
...SOUTHWEST COLORADO...

CITY           SKY/WX    TMP DP  RH WIND       PRES   REMARKS
DURANGO        MOCLDY    64  51  62 N14       30.38S
CORTEZ         FAIR      73  53  49 S12G21    30.27S
PAGOSA SPRINGS CLOUDY    59  55  85 N5        30.48S
TELLURIDE      FAIR      62  46  55 E9G16     30.55R
WOLF CREEK PAS MOCLDY    45  43  93 S7        30.81S
$$

COZ009-010-012-014-032>034-037-058>063-191200-
...CENTRAL COLORADO...

CITY           SKY/WX    TMP DP  RH WIND       PRES   REMARKS
ASPEN          FAIR      55  46  71 CALM      30.39S
BUENA VISTA    FAIR      53  49  86 CALM      30.47R
COPPER MTN     FAIR      55  37  50 S12       30.75R
BERTHOUD PASS  FAIR      46  32  57 W14G20    30.77S
COTTONWOOD PAS FAIR      59  43  55 CALM      30.59S
GUNNISON       FAIR      55  50  83 N7        30.47R
KREMMLING      FAIR      54  46  76 SE3       30.41R
LEADVILLE      FAIR      44  42  93 CALM      30.58R
SALIDA         FAIR      58  52  79 N5        30.49F
SUNLIGHT       FAIR      54  36  50 S3        30.65S
WILKERSON PASS MOCLDY    50  43  76 SW12G18   30.70S
$$

COZ069>075-191200-
...SAN LUIS VALLEY/SANGRE DE CRISTO MOUNTAINS...

CITY           SKY/WX    TMP DP  RH WIND       PRES   REMARKS
ALAMOSA        FAIR      56  55  97 E6        30.44S
DEL NORTE      FAIR      57  52  85 W10       30.48S
LA VETA PASS   NOT AVBL
SAGUACHE         N/A    N/A N/A N/A MISG        N/A
$$

COZ035-036-038>040-191200-
...NORTHERN COLORADO FRONT RANGE...

CITY           SKY/WX    TMP DP  RH WIND       PRES   REMARKS
DENVER INTL AP MOCLDY    66  56  70 S8        30.16F
DMNS CITY PARK   N/A     71  51  50 SW7       30.17S
AURORA         NOT AVBL
FRONT RANGE AP FAIR      70  59  68 S9        30.18S
ERIE MUNI ARPT FAIR      63  51  66 CALM      30.14F
BOULDER MUN AP FAIR      66  52  59 CALM      30.15F
CENTENNIAL     FAIR      72  49  44 SW9       30.21S
BROOMFIELD     FAIR      68  48  49 CALM      30.19S
FORT COLLINS   FAIR      65  56  72 N8        30.15
LONGMONT       FAIR      66  52  60 CALM      30.15F
$$

COZ041-046-047-076>085-087-088-191200-
...PIKES PEAK/PALMER DIVIDE AND SOUTHERN FOOTHILLS...

CITY           SKY/WX    TMP DP  RH WIND       PRES   REMARKS
COLO. SPRINGS  MOCLDY    65  62  90 W3        30.27R
A. F. ACADEMY  NOT AVBL
SCHRIEVER AFB  NOT AVBL
CHEYENNE MTN   NOT AVBL
ELLICOTT       FAIR     N/A N/A N/A S6        30.25S
FALCON           N/A     62  60  91 CALM      30.32S
FORT CARSON    FAIR      65  56  74 NW3       30.24R
LIMON          FAIR      61  59  93 CALM      30.20S
MONUMENT HILL  FAIR      61  54  77 SW7       30.33R
CANON CITY     CLEAR     72  55  56 W12       30.22S
WALSENBURG     FAIR      70  54  56 W16G24    30.28S
TRINIDAD       FAIR      67  53  61 W13       30.25S
$$

COZ042>045-048>051-090-091-191200-
...NORTHEAST COLORADO...

CITY           SKY/WX    TMP DP  RH WIND       PRES   REMARKS
GREELEY ARPT   FAIR      65  58  78 N6        30.14F
AKRON          FAIR      62  55  77 SE7       30.15R
BURLINGTON     FAIR      71  68  90 S8        30.11R
WRAY           NOT AVBL
YUMA           FAIR      61  61 100 CALM      30.13R
STERLING       FAIR      63  61  94 CALM      30.12R
HOLYOKE        FOG       68  64  88 CALM      30.11S VSB 1/4
FORT MORGAN    FAIR      64  55  71 W5        30.14F
$$

COZ086-089-092>099-191200-
...SOUTHEAST COLORADO...

CITY           SKY/WX    TMP DP  RH WIND       PRES   REMARKS
PUEBLO         FAIR      68  56  65 CALM      30.17S
LA JUNTA       FAIR      71  57  61 SW12      30.14R
LAMAR          FAIR      69  59  70 SW7       30.09S
SPRINGFIELD      N/A     69  56  62 SW8       30.18R
$$




USA.gov is the U.S. government's official web portal to all federal, state and local government web resources and services.